Total_Precipitation_Accumulation
1.25 1.28 1.36 1.45 1.63 1.71 1.68 1.74 1.78 1.81 1.96 2.08 2.18 2.27 2.28 2.31 2.45 2.54 2.39 2.54 2.55 2.65 2.59 2.55 2.51 2.70 2.72 2.55 2.68 2.76 2.96 3.19 2.94 2.56 2.68 2.70 2.59 2.38 2.39 2.34 2.23 2.18 1.98
1.25 1.33 1.43 1.50 1.60 1.67 1.61 1.71 1.92 1.98 2.04 2.14 2.25 2.35 2.26 2.34 2.48 2.43 2.42 2.49 2.54 2.53 2.63 2.83 2.76 2.89 2.86 2.79 2.94 2.94 3.02 3.27 3.21 2.91 2.79 2.82 2.70 2.58 2.50 2.29 1.98 1.90 1.88
1.58 1.53 1.52 1.50 1.58 1.72 1.79 1.84 1.96 2.10 2.18 2.17 2.15 2.23 2.37 2.54 2.57 2.41 2.40 2.40 2.33 2.25 2.42 2.69 2.97 3.40 3.24 3.04 2.90 2.83 2.90 2.96 3.19 2.95 2.72 2.90 2.75 2.64 2.58 2.25 2.01 1.96 1.66
1.46 1.42 1.51 1.58 1.71 1.88 1.96 2.04 2.12 2.14 2.18 2.25 2.30 2.32 2.41 2.45 2.41 2.39 2.43 2.44 2.41 2.26 2.28 2.38 2.54 2.84 3.01 3.14 2.90 2.77 2.82 2.94 3.08 3.02 2.96 3.16 3.21 3.05 2.84 2.45 2.27 2.13 1.90
1.66 1.79 1.94 1.97 2.01 2.14 2.25 2.26 2.33 2.32 2.27 2.46 2.49 2.46 2.46 2.41 2.22 2.39 2.51 2.40 2.47 2.39 2.33 2.28 2.14 2.26 2.45 2.64 2.50 2.77 2.95 2.93 3.02 3.07 3.18 3.55 3.55 3.33 2.82 2.55 2.46 2.35 2.08
2.01 2.30 2.43 2.49 2.53 2.60 2.67 2.66 2.67 2.61 2.74 2.76 2.60 2.53 2.49 2.24 2.38 2.42 2.43 2.43 2.53 2.49 2.41 2.38 2.22 2.07 2.04 2.17 2.24 2.44 2.69 2.75 2.84 3.01 3.10 3.29 3.33 3.26 3.04 2.78 2.53 2.38 2.10
2.04 2.26 2.38 2.50 2.60 2.78 2.81 2.81 2.80 2.81 2.83 2.83 2.87 2.81 2.70 2.75 2.75 2.40 2.32 2.32 2.39 2.40 2.55 2.64 2.23 1.87 2.06 2.02 2.12 2.12 2.08 2.24 2.45 2.67 2.82 2.89 3.19 3.31 3.31 2.89 2.70 2.51 2.17
2.29 2.47 2.58 2.59 2.63 2.70 2.69 2.62 2.65 2.78 2.80 2.75 2.68 2.60 2.57 2.55 2.60 2.33 2.26 2.15 2.19 2.22 2.24 2.26 2.23 2.07 1.98 2.01 2.00 1.89 1.76 1.78 1.92 1.98 2.09 2.37 2.73 3.19 3.47 3.21 3.07 2.86 2.51
2.50 2.62 2.75 2.83 2.89 2.79 2.68 2.70 2.75 2.81 2.68 2.59 2.53 2.52 2.47 2.46 2.51 2.31 2.24 2.06 2.05 2.00 1.98 1.99 2.02 1.90 1.95 1.91 1.82 1.78 1.73 1.62 1.65 1.72 1.72 1.86 2.17 2.57 3.05 3.24 2.98 2.63 2.31
2.48 2.59 2.73 2.83 3.00 3.09 3.02 3.03 2.98 2.88 2.77 2.71 2.62 2.64 2.62 2.59 2.71 2.44 2.27 2.09 2.08 2.11 2.20 2.18 2.13 1.96 1.94 1.84 1.68 1.68 1.56 1.44 1.54 1.53 1.48 1.51 1.63 1.97 2.46 2.62 2.71 2.54 2.22
2.18 2.21 2.41 2.69 2.91 3.05 3.15 3.13 3.13 3.03 2.91 2.70 2.53 2.47 2.47 2.52 2.65 2.46 2.30 2.08 2.07 2.20 2.30 2.34 2.28 2.18 1.88 1.73 1.59 1.52 1.50 1.62 1.68 1.67 1.62 1.63 1.79 1.97 2.14 2.38 2.60 2.62 2.39
2.20 2.32 2.47 2.69 2.79 2.82 2.93 2.98 3.10 3.06 2.96 2.86 2.62 2.40 2.31 2.20 2.15 2.16 2.02 1.92 1.97 2.08 2.19 2.31 2.34 2.26 1.99 1.84 1.69 1.57 1.61 1.58 1.58 1.69 1.67 1.63 1.66 1.75 1.93 2.23 2.49 2.56 2.43
2.46 2.55 2.62 2.68 2.77 2.84 2.89 2.89 2.88 2.83 2.69 2.60 2.47 2.36 2.29 2.22 2.12 1.95 1.74 1.68 1.71 1.74 1.89 2.25 2.37 2.23 2.01 1.76 1.68 1.67 1.60 1.47 1.49 1.52 1.43 1.38 1.42 1.54 1.74 2.04 2.37 2.57 2.51
2.49 2.43 2.40 2.40 2.46 2.52 2.63 2.67 2.62 2.53 2.45 2.38 2.31 2.25 2.15 2.09 1.97 1.86 1.76 1.63 1.59 1.59 1.61 1.85 1.97 1.93 1.76 1.63 1.55 1.45 1.36 1.36 1.34 1.32 1.34 1.41 1.50 1.55 1.61 1.76 2.12 2.45 2.55
2.46 2.46 2.48 2.48 2.49 2.52 2.58 2.68 2.55 2.42 2.40 2.27 2.14 2.16 2.13 1.99 1.94 1.90 1.78 1.65 1.58 1.64 1.63 1.65 1.75 1.85 1.82 1.74 1.72 1.64 1.54 1.47 1.39 1.35 1.44 1.48 1.59 1.70 1.74 1.85 2.10 2.31 2.28
2.49 2.40 2.41 2.47 2.54 2.62 2.67 2.73 2.79 2.53 2.47 2.33 2.21 2.15 2.06 1.92 1.80 1.65 1.59 1.55 1.46 1.44 1.36 1.40 1.60 1.78 1.90 1.91 1.94 1.91 1.83 1.75 1.67 1.66 1.69 1.68 1.67 1.72 1.77 1.82 2.03 2.23 2.21
2.51 2.50 2.51 2.49 2.54 2.59 2.58 2.53 2.57 2.48 2.28 2.20 2.09 1.94 1.82 1.71 1.55 1.45 1.42 1.43 1.38 1.30 1.17 1.29 1.46 1.61 1.80 1.96 2.00 1.96 1.89 1.90 1.98 1.97 1.92 1.88 1.85 1.86 1.90 1.89 1.89 2.04 2.10
2.45 2.52 2.56 2.55 2.47 2.46 2.39 2.34 2.30 2.29 2.14 1.97 1.87 1.77 1.72 1.64 1.62 1.61 1.57 1.48 1.37 1.30 1.22 1.39 1.56 1.70 1.84 2.02 2.07 2.04 2.04 2.03 2.06 2.04 2.06 2.03 2.00 1.98 1.97 1.91 1.84 1.84 1.95
2.25 2.21 2.18 2.20 2.17 2.14 2.07 2.00 1.93 1.87 1.91 1.95 1.79 1.64 1.68 1.61 1.68 1.79 1.65 1.43 1.44 1.47 1.50 1.57 1.63 1.71 1.85 2.01 2.15 2.25 2.27 2.21 2.16 2.14 2.12 2.15 2.18 2.15 2.02 1.94 1.98 2.00 1.96
1.81 1.92 1.82 1.72 1.71 1.72 1.71 1.72 1.68 1.69 1.76 1.88 1.82 1.58 1.51 1.48 1.54 1.68 1.54 1.51 1.56 1.51 1.51 1.58 1.62 1.63 1.77 1.91 2.02 2.12 2.18 2.15 2.13 2.14 2.10 2.09 2.11 2.12 2.02 2.01 2.09 2.08 1.94
1.44 1.43 1.47 1.37 1.42 1.55 1.61 1.61 1.59 1.64 1.70 1.76 1.68 1.50 1.41 1.34 1.54 1.62 1.53 1.47 1.42 1.36 1.38 1.40 1.46 1.54 1.67 1.83 1.92 2.01 2.10 2.10 2.05 2.06 2.10 2.07 2.00 2.02 2.00 2.00 2.03 2.10 2.06
1.10 1.10 1.11 1.10 1.23 1.34 1.37 1.41 1.48 1.53 1.57 1.59 1.49 1.34 1.33 1.31 1.48 1.54 1.45 1.41 1.39 1.38 1.38 1.39 1.38 1.41 1.53 1.68 1.74 1.85 2.00 2.02 1.95 1.96 2.05 2.13 2.07 2.02 2.06 2.06 2.06 2.12 2.15
1.00 1.05 1.08 1.09 1.17 1.21 1.21 1.27 1.41 1.48 1.50 1.49 1.40 1.31 1.27 1.29 1.35 1.42 1.42 1.35 1.32 1.33 1.34 1.36 1.39 1.43 1.49 1.60 1.62 1.70 1.87 1.88 1.86 1.90 1.99 2.03 2.02 2.00 2.04 2.04 2.02 2.09 2.10
1.02 1.05 1.08 1.04 1.01 1.05 1.10 1.15 1.21 1.24 1.28 1.31 1.29 1.23 1.19 1.19 1.22 1.24 1.26 1.24 1.25 1.28 1.32 1.40 1.46 1.53 1.59 1.60 1.53 1.49 1.57 1.62 1.60 1.64 1.73 1.84 1.91 1.95 1.98 1.95 1.90 1.92 1.98
0.98 1.05 1.07 1.13 1.14 1.13 1.13 1.14 1.16 1.13 1.14 1.18 1.20 1.22 1.23 1.21 1.23 1.26 1.29 1.30 1.30 1.31 1.28 1.31 1.40 1.48 1.50 1.41 1.34 1.34 1.45 1.41 1.36 1.37 1.48 1.63 1.71 1.78 1.84 1.85 1.85 1.88 1.96
1.06 1.12 1.18 1.25 1.27 1.26 1.27 1.29 1.26 1.22 1.22 1.20 1.25 1.27 1.33 1.39 1.39 1.41 1.39 1.37 1.37 1.37 1.33 1.34 1.35 1.31 1.31 1.27 1.20 1.22 1.21 1.12 1.12 1.23 1.28 1.39 1.54 1.60 1.71 1.79 1.78 1.82 1.87